| time (UTC) | temp C | wind direction | speed KPH | gust KPH | rain 1hr cm | rain 24hr cm | rain mn cm | humidity % | barometer mb |
| 20260503005608 | 6 | 289 | 1.6 | 3.2 | 0.00 | 0.00 | 0.00 | 61 | 1015.0 |
| 20260503005106 | 6 | 321 | 1.6 | 3.2 | 0.00 | 0.00 | 0.00 | 61 | 1015.1 |
| 20260503004608 | 7 | 281 | 3.2 | 3.2 | 0.00 | 0.00 | 0.00 | 59 | 1015.0 |
| 20260503004106 | 7 | 236 | 3.2 | 3.2 | 0.00 | 0.00 | 0.00 | 58 | 1014.9 |
| 20260503003607 | 7 | 276 | 6.4 | 11.3 | 0.00 | 0.00 | 0.00 | 58 | 1015.0 |
| 20260503003107 | 7 | 302 | 1.6 | 1.6 | 0.00 | 0.00 | 0.00 | 57 | 1014.9 |
| 20260503002606 | 7 | 306 | 6.4 | 9.7 | 0.00 | 0.00 | 0.00 | 56 | 1014.9 |
| 20260503002106 | 7 | 301 | 4.8 | 9.7 | 0.00 | 0.00 | 0.00 | 56 | 1014.8 |
| 20260503001607 | 7 | 280 | 3.2 | 4.8 | 0.00 | 0.00 | 0.00 | 56 | 1014.7 |
| 20260503001106 | 7 | 295 | 4.8 | 9.7 | 0.00 | 0.00 | 0.00 | 55 | 1014.7 |
| 20260503000607 | 7 | 201 | 1.6 | 3.2 | 0.00 | 0.00 | 0.00 | 56 | 1014.8 |
| 20260503000106 | 8 | 288 | 3.2 | 4.8 | 0.00 | 0.00 | 0.00 | 54 | 1014.6 |
| 20260502235606 | 8 | 281 | 4.8 | 9.7 | 0.00 | 0.00 | 0.00 | 54 | 1014.5 |
| 20260502235107 | 8 | 18 | 3.2 | 3.2 | 0.00 | 0.00 | 0.00 | 54 | 1014.6 |
| 20260502234607 | 8 | 302 | 3.2 | 6.4 | 0.00 | 0.00 | 0.00 | 53 | 1014.5 |
| 20260502234106 | 8 | 316 | 4.8 | 9.7 | 0.00 | 0.00 | 0.00 | 53 | 1014.6 |
| 20260502233607 | 8 | 286 | 9.7 | 12.9 | 0.00 | 0.00 | 0.00 | 53 | 1014.5 |
| 20260502233106 | 8 | 280 | 3.2 | 9.7 | 0.00 | 0.00 | 0.00 | 52 | 1014.5 |
| 20260502232606 | 8 | 279 | 8.0 | 14.5 | 0.00 | 0.00 | 0.00 | 51 | 1014.4 |
| 20260502232106 | 9 | 280 | 11.3 | 16.1 | 0.00 | 0.00 | 0.00 | 51 | 1014.3 |
| 20260502231606 | 8 | 348 | 3.2 | 8.0 | 0.00 | 0.00 | 0.00 | 51 | 1014.3 |
| 20260502231106 | 8 | 289 | 6.4 | 9.7 | 0.00 | 0.00 | 0.00 | 52 | 1014.4 |
| 20260502230606 | 8 | 313 | 4.8 | 9.7 | 0.00 | 0.00 | 0.00 | 53 | 1014.4 |
| 20260502230106 | 8 | 324 | 3.2 | 9.7 | 0.00 | 0.00 | 0.00 | 53 | 1014.4 |
| 20260502225606 | 8 | 320 | 4.8 | 8.0 | 0.00 | 0.00 | 0.00 | 53 | 1014.4 |
| 20260502225106 | 8 | 288 | 4.8 | 9.7 | 0.00 | 0.00 | 0.00 | 53 | 1014.3 |
| 20260502224606 | 8 | 283 | 9.7 | 20.9 | 0.00 | 0.00 | 0.00 | 52 | 1014.3 |
| 20260502224106 | 8 | 261 | 6.4 | 12.9 | 0.00 | 0.00 | 0.00 | 52 | 1014.2 |
| 20260502223606 | 8 | 280 | 8.0 | 14.5 | 0.00 | 0.00 | 0.00 | 52 | 1014.1 |
| 20260502223107 | 9 | 293 | 4.8 | 9.7 | 0.00 | 0.00 | 0.00 | 52 | 1014.2 |
| 20260502222606 | 9 | 301 | 6.4 | 9.7 | 0.00 | 0.00 | 0.00 | 52 | 1014.2 |
| 20260502222106 | 9 | 297 | 3.2 | 9.7 | 0.00 | 0.00 | 0.00 | 51 | 1014.1 |
| 20260502221607 | 9 | 297 | 9.7 | 11.3 | 0.00 | 0.00 | 0.00 | 51 | 1014.1 |
| 20260502221106 | 8 | 335 | 1.6 | 3.2 | 0.00 | 0.00 | 0.00 | 52 | 1014.0 |
| 20260502220606 | 9 | 304 | 3.2 | 8.0 | 0.00 | 0.00 | 0.00 | 51 | 1014.0 |
| 20260502220110 | 9 | 271 | 6.4 | 11.3 | 0.00 | 0.00 | 0.00 | 52 | 1014.0 |
| 20260502215607 | 9 | 305 | 4.8 | 9.7 | 0.00 | 0.00 | 0.00 | 51 | 1013.9 |
| 20260502215107 | 9 | 327 | 6.4 | 9.7 | 0.00 | 0.00 | 0.00 | 50 | 1013.9 |
| 20260502214606 | 9 | 285 | 6.4 | 9.7 | 0.00 | 0.00 | 0.00 | 51 | 1013.9 |
| 20260502214106 | 9 | 292 | 6.4 | 11.3 | 0.00 | 0.00 | 0.00 | 50 | 1014.0 |
| 20260502213607 | 8 | 311 | 4.8 | 8.0 | 0.00 | 0.00 | 0.00 | 52 | 1013.9 |
| 20260502213106 | 8 | 283 | 8.0 | 12.9 | 0.00 | 0.00 | 0.00 | 53 | 1014.0 |
| 20260502212606 | 8 | 277 | 4.8 | 9.7 | 0.00 | 0.00 | 0.00 | 53 | 1013.9 |
| 20260502212106 | 8 | 293 | 6.4 | 9.7 | 0.00 | 0.00 | 0.00 | 54 | 1013.9 |
| 20260502211606 | 8 | 288 | 8.0 | 11.3 | 0.00 | 0.00 | 0.00 | 53 | 1013.7 |
| 20260502211106 | 9 | 264 | 4.8 | 9.7 | 0.00 | 0.00 | 0.00 | 52 | 1013.7 |
| 20260502210606 | 9 | 93 | 1.6 | 3.2 | 0.00 | 0.00 | 0.00 | 52 | 1013.7 |
| 20260502210107 | 9 | 270 | 3.2 | 6.4 | 0.00 | 0.00 | 0.00 | 50 | 1013.6 |
| 20260502205606 | 9 | 291 | 11.3 | 14.5 | 0.00 | 0.00 | 0.00 | 50 | 1013.5 |
| 20260502205106 | 9 | 303 | 4.8 | 8.0 | 0.00 | 0.00 | 0.00 | 50 | 1013.6 |
| 20260502204607 | 9 | 285 | 6.4 | 11.3 | 0.00 | 0.00 | 0.00 | 50 | 1013.6 |
| 20260502204107 | 9 | 269 | 8.0 | 11.3 | 0.00 | 0.00 | 0.00 | 50 | 1013.7 |
| 20260502203606 | 9 | 276 | 3.2 | 9.7 | 0.00 | 0.00 | 0.00 | 52 | 1013.7 |
| 20260502203107 | 9 | 275 | 9.7 | 14.5 | 0.00 | 0.00 | 0.00 | 51 | 1013.7 |
| 20260502202606 | 9 | 298 | 6.4 | 9.7 | 0.00 | 0.00 | 0.00 | 53 | 1013.9 |
| 20260502202106 | 9 | 298 | 6.4 | 11.3 | 0.00 | 0.00 | 0.00 | 53 | 1013.9 |
| 20260502201606 | 9 | 6 | 3.2 | 4.8 | 0.00 | 0.00 | 0.00 | 52 | 1014.0 |
| 20260502201107 | 9 | 20 | 1.6 | 4.8 | 0.00 | 0.00 | 0.00 | 51 | 1014.0 |
| 20260502200608 | 10 | 299 | 11.3 | 19.3 | 0.00 | 0.00 | 0.00 | 49 | 1013.9 |
| 20260502200106 | 10 | 288 | 9.7 | 14.5 | 0.00 | 0.00 | 0.00 | 50 | 1013.7 |
| 20260502195606 | 10 | 330 | 6.4 | 9.7 | 0.00 | 0.00 | 0.00 | 48 | 1013.7 |
| 20260502195106 | 10 | 273 | 14.5 | 20.9 | 0.00 | 0.00 | 0.00 | 48 | 1014.0 |
| 20260502194606 | 10 | 336 | 4.8 | 8.0 | 0.00 | 0.00 | 0.00 | 50 | 1014.0 |
| 20260502194106 | 10 | 272 | 8.0 | 11.3 | 0.00 | 0.00 | 0.00 | 49 | 1014.1 |
| 20260502193606 | 10 | 298 | 4.8 | 8.0 | 0.00 | 0.00 | 0.00 | 48 | 1014.0 |
| 20260502193107 | 10 | 325 | 6.4 | 11.3 | 0.00 | 0.00 | 0.00 | 50 | 1013.9 |
| 20260502192606 | 10 | 297 | 6.4 | 9.7 | 0.00 | 0.00 | 0.00 | 49 | 1014.0 |
| 20260502192106 | 10 | 306 | 12.9 | 17.7 | 0.00 | 0.00 | 0.00 | 49 | 1014.0 |
| 20260502191606 | 10 | 255 | 9.7 | 14.5 | 0.00 | 0.00 | 0.00 | 49 | 1013.9 |
| 20260502191106 | 9 | 247 | 4.8 | 9.7 | 0.00 | 0.00 | 0.00 | 51 | 1014.0 |
| 20260502190606 | 9 | 275 | 8.0 | 14.5 | 0.00 | 0.00 | 0.00 | 50 | 1014.0 |
| 20260502190106 | 10 | 260 | 9.7 | 16.1 | 0.00 | 0.00 | 0.00 | 49 | 1014.0 |
| 20260502185606 | 10 | 302 | 11.3 | 14.5 | 0.00 | 0.00 | 0.00 | 48 | 1013.9 |
| 20260502185106 | 10 | 287 | 9.7 | 16.1 | 0.00 | 0.00 | 0.00 | 48 | 1014.0 |
| 20260502184607 | 10 | 337 | 6.4 | 9.7 | 0.00 | 0.00 | 0.00 | 48 | 1014.0 |
| 20260502184107 | 10 | 312 | 9.7 | 16.1 | 0.00 | 0.00 | 0.00 | 49 | 1014.0 |
| 20260502183606 | 11 | 290 | 9.7 | 14.5 | 0.00 | 0.00 | 0.00 | 46 | 1013.9 |
| 20260502183108 | 10 | 232 | 1.6 | 3.2 | 0.00 | 0.00 | 0.00 | 45 | 1014.0 |
| 20260502182607 | 10 | 281 | 6.4 | 9.7 | 0.00 | 0.00 | 0.00 | 47 | 1014.0 |
| 20260502182107 | 10 | 282 | 14.5 | 20.9 | 0.00 | 0.00 | 0.00 | 48 | 1014.2 |
| 20260502181606 | 10 | 297 | 3.2 | 8.0 | 0.00 | 0.00 | 0.00 | 51 | 1014.3 |
| 20260502181107 | 10 | 286 | 4.8 | 11.3 | 0.00 | 0.00 | 0.00 | 47 | 1014.4 |
| 20260502180606 | 10 | 271 | 4.8 | 6.4 | 0.00 | 0.00 | 0.00 | 47 | 1014.2 |
| 20260502180107 | 10 | 300 | 8.0 | 19.3 | 0.00 | 0.00 | 0.00 | 49 | 1014.2 |
| 20260502170106 | 10 | 177 | 6.4 | 9.7 | 0.00 | 0.00 | 0.00 | 47 | 1014.3 |
| 20260502164107 | 10 | 309 | 8.0 | 11.3 | 0.00 | 0.00 | 0.00 | 50 | 1014.5 |
| 20260502163607 | 10 | 310 | 12.9 | 19.3 | 0.00 | 0.00 | 0.00 | 49 | 1014.5 |
| 20260502163107 | 10 | 161 | 3.2 | 4.8 | 0.00 | 0.00 | 0.00 | 48 | 1014.5 |
| 20260502162606 | 9 | 152 | 4.8 | 6.4 | 0.00 | 0.00 | 0.00 | 47 | 1014.5 |
| 20260502162109 | 9 | 351 | 8.0 | 11.3 | 0.00 | 0.00 | 0.00 | 50 | 1014.7 |
| 20260502161606 | 10 | 293 | 6.4 | 9.7 | 0.00 | 0.00 | 0.00 | 50 | 1014.6 |
| 20260502161107 | 9 | 345 | 4.8 | 6.4 | 0.00 | 0.00 | 0.00 | 50 | 1014.7 |
| 20260502160607 | 9 | 156 | 4.8 | 9.7 | 0.00 | 0.00 | 0.00 | 48 | 1014.7 |
| 20260502160107 | 9 | 295 | 9.7 | 16.1 | 0.00 | 0.00 | 0.00 | 50 | 1014.9 |
| 20260502152107 | 8 | 27 | 3.2 | 6.4 | 0.00 | 0.00 | 0.00 | 52 | 1015.1 |
| 20260502151607 | 8 | 346 | 6.4 | 12.9 | 0.00 | 0.00 | 0.00 | 49 | 1015.1 |
| 20260502151106 | 8 | 270 | 6.4 | 12.9 | 0.00 | 0.00 | 0.00 | 48 | 1015.0 |
| 20260502150607 | 8 | 255 | 9.7 | 14.5 | 0.00 | 0.00 | 0.00 | 49 | 1014.9 |
| 20260502150106 | 8 | 41 | 9.7 | 12.9 | 0.00 | 0.00 | 0.00 | 49 | 1014.9 |
| 20260502140107 | 6 | 336 | 4.8 | 9.7 | 0.00 | 0.00 | 0.00 | 63 | 1015.1 |
| 20260502130608 | 5 | 237 | 3.2 | 4.8 | 0.00 | 0.00 | 0.00 | 69 | 1015.4 |
| 20260502130107 | 5 | 134 | 1.6 | 1.6 | 0.00 | 0.00 | 0.00 | 68 | 1015.4 |
| 20260502123606 | 5 | 243 | 3.2 | 3.2 | 0.00 | 0.00 | 0.00 | 69 | 1015.4 |
| 20260502123106 | 5 | 299 | 1.6 | 1.6 | 0.00 | 0.00 | 0.00 | 70 | 1015.2 |
| 20260502122606 | 5 | 275 | 0.0 | 1.6 | 0.00 | 0.00 | 0.00 | 72 | 1015.2 |
| 20260502122106 | 5 | 94 | 3.2 | 4.8 | 0.00 | 0.00 | 0.00 | 72 | 1015.2 |
| 20260502121606 | 5 | 81 | 0.0 | 0.0 | 0.00 | 0.00 | 0.00 | 71 | 1015.2 |
| 20260502121106 | 5 | 354 | 3.2 | 4.8 | 0.00 | 0.00 | 0.00 | 74 | 1015.2 |
| 20260502120606 | 4 | 0 | 0.0 | 0.0 | 0.00 | 0.00 | 0.00 | 74 | 1015.4 |
| 20260502115620 | 4 | 238 | 1.6 | 1.6 | 0.00 | 0.00 | 0.00 | 75 | 1015.5 |
| 20260502115107 | 4 | 270 | 1.6 | 3.2 | 0.00 | 0.00 | 0.00 | 77 | 1015.4 |
| 20260502114606 | 3 | 187 | 0.0 | 1.6 | 0.00 | 0.00 | 0.00 | 79 | 1015.2 |
| 20260502114107 | 3 | 326 | 0.0 | 1.6 | 0.00 | 0.00 | 0.00 | 79 | 1015.2 |
| 20260502113608 | 3 | 234 | 1.6 | 1.6 | 0.00 | 0.00 | 0.00 | 79 | 1015.1 |
| 20260502113107 | 3 | 0 | 0.0 | 0.0 | 0.00 | 0.00 | 0.00 | 80 | 1015.2 |
| 20260502112606 | 2 | 311 | 0.0 | 0.0 | 0.00 | 0.00 | 0.00 | 80 | 1015.2 |
| 20260502112107 | 2 | 23 | 0.0 | 0.0 | 0.00 | 0.00 | 0.00 | 81 | 1015.1 |
| 20260502111607 | 2 | 61 | 0.0 | 0.0 | 0.00 | 0.00 | 0.00 | 81 | 1015.1 |
| 20260502111107 | 2 | 0 | 0.0 | 0.0 | 0.00 | 0.00 | 0.00 | 81 | 1014.9 |
| 20260502110607 | 2 | 143 | 0.0 | 1.6 | 0.00 | 0.00 | 0.00 | 80 | 1014.9 |
| 20260502110107 | 2 | 0 | 0.0 | 0.0 | 0.00 | 0.00 | 0.00 | 80 | 1015.0 |
| 20260502105609 | 2 | 75 | 0.0 | 1.6 | 0.00 | 0.00 | 0.00 | 79 | 1014.9 |
| 20260502105106 | 2 | 0 | 0.0 | 0.0 | 0.00 | 0.00 | 0.00 | 80 | 1014.8 |
| 20260502104608 | 2 | 0 | 0.0 | 0.0 | 0.00 | 0.00 | 0.00 | 80 | 1014.8 |
| 20260502104106 | 3 | 0 | 0.0 | 0.0 | 0.00 | 0.00 | 0.00 | 79 | 1014.8 |
| 20260502103607 | 3 | 9 | 0.0 | 1.6 | 0.00 | 0.00 | 0.00 | 77 | 1014.7 |
| 20260502103107 | 3 | 233 | 1.6 | 1.6 | 0.00 | 0.00 | 0.00 | 77 | 1014.8 |
| 20260502102608 | 3 | 130 | 0.0 | 1.6 | 0.00 | 0.00 | 0.00 | 77 | 1014.6 |
| 20260502102107 | 3 | 0 | 0.0 | 0.0 | 0.00 | 0.00 | 0.00 | 76 | 1014.7 |
| 20260502101607 | 3 | 113 | 0.0 | 1.6 | 0.00 | 0.00 | 0.00 | 76 | 1014.7 |
| 20260502101106 | 3 | 0 | 0.0 | 0.0 | 0.00 | 0.00 | 0.00 | 74 | 1014.8 |
| 20260502100606 | 3 | 62 | 0.0 | 1.6 | 0.00 | 0.00 | 0.00 | 74 | 1014.8 |
| 20260502100106 | 4 | 61 | 0.0 | 1.6 | 0.00 | 0.00 | 0.00 | 73 | 1014.9 |
| 20260502091106 | 6 | 292 | 1.6 | 3.2 | 0.00 | 0.00 | 0.00 | 63 | 1015.1 |
| 20260502090606 | 6 | 243 | 1.6 | 3.2 | 0.00 | 0.00 | 0.00 | 62 | 1015.1 |
| 20260502090107 | 6 | 327 | 1.6 | 1.6 | 0.00 | 0.00 | 0.00 | 62 | 1015.1 |
| 20260502080106 | 6 | 297 | 4.8 | 6.4 | 0.00 | 0.00 | 0.00 | 70 | 1014.9 |
| 20260502071106 | 7 | 279 | 3.2 | 4.8 | 0.00 | 0.00 | 0.00 | 70 | 1014.8 |
| 20260502070607 | 7 | 275 | 3.2 | 6.4 | 0.00 | 0.00 | 0.00 | 70 | 1014.7 |
| 20260502070107 | 7 | 299 | 4.8 | 9.7 | 0.00 | 0.00 | 0.00 | 69 | 1014.7 |
| 20260502065607 | 7 | 339 | 3.2 | 4.8 | 0.00 | 0.00 | 0.00 | 70 | 1014.8 |
| 20260502065107 | 7 | 293 | 6.4 | 9.7 | 0.00 | 0.00 | 0.00 | 70 | 1014.9 |
| 20260502064606 | 7 | 293 | 3.2 | 4.8 | 0.00 | 0.00 | 0.00 | 73 | 1015.0 |
| 20260502064107 | 7 | 294 | 4.8 | 6.4 | 0.00 | 0.00 | 0.00 | 73 | 1014.9 |
| 20260502063607 | 7 | 180 | 3.2 | 6.4 | 0.00 | 0.00 | 0.00 | 73 | 1015.0 |
| 20260502063107 | 7 | 274 | 8.0 | 9.7 | 0.00 | 0.00 | 0.00 | 74 | 1015.0 |
| 20260502062607 | 7 | 295 | 6.4 | 8.0 | 0.00 | 0.00 | 0.00 | 75 | 1015.1 |
| 20260502062107 | 7 | 302 | 8.0 | 14.5 | 0.00 | 0.00 | 0.00 | 75 | 1015.1 |
| 20260502061607 | 7 | 291 | 6.4 | 9.7 | 0.00 | 0.00 | 0.00 | 75 | 1015.1 |
| 20260502061107 | 8 | 296 | 4.8 | 6.4 | 0.00 | 0.00 | 0.00 | 75 | 1015.1 |
| 20260502060606 | 8 | 287 | 4.8 | 6.4 | 0.00 | 0.00 | 0.00 | 75 | 1015.2 |
| 20260502060107 | 8 | 274 | 6.4 | 9.7 | 0.00 | 0.00 | 0.00 | 75 | 1015.2 |
| 20260502055606 | 8 | 287 | 4.8 | 6.4 | 0.00 | 0.00 | 0.00 | 75 | 1015.2 |
| 20260502055106 | 8 | 86 | 3.2 | 4.8 | 0.00 | 0.00 | 0.00 | 75 | 1015.2 |
| 20260502054606 | 8 | 283 | 3.2 | 3.2 | 0.00 | 0.00 | 0.00 | 74 | 1015.2 |
| 20260502054106 | 8 | 31 | 1.6 | 3.2 | 0.00 | 0.00 | 0.00 | 74 | 1015.2 |
| 20260502053606 | 8 | 244 | 4.8 | 6.4 | 0.00 | 0.00 | 0.00 | 74 | 1015.2 |
| 20260502053106 | 8 | 302 | 1.6 | 3.2 | 0.00 | 0.00 | 0.00 | 74 | 1015.1 |
| 20260502052608 | 8 | 186 | 1.6 | 1.6 | 0.00 | 0.00 | 0.00 | 73 | 1015.0 |
| 20260502052106 | 8 | 271 | 4.8 | 6.4 | 0.00 | 0.00 | 0.00 | 73 | 1015.1 |
| 20260502051606 | 8 | 266 | 3.2 | 4.8 | 0.00 | 0.00 | 0.00 | 73 | 1015.0 |
| 20260502051106 | 8 | 286 | 4.8 | 6.4 | 0.00 | 0.00 | 0.00 | 73 | 1015.0 |
| 20260502050607 | 8 | 179 | 3.2 | 3.2 | 0.00 | 0.00 | 0.00 | 72 | 1015.1 |
| 20260502050106 | 8 | 313 | 1.6 | 1.6 | 0.00 | 0.00 | 0.00 | 72 | 1015.1 |
| 20260502045607 | 8 | 291 | 4.8 | 4.8 | 0.00 | 0.00 | 0.00 | 72 | 1015.0 |
| 20260502045106 | 8 | 294 | 6.4 | 9.7 | 0.00 | 0.00 | 0.00 | 72 | 1015.0 |
| 20260502044606 | 8 | 296 | 4.8 | 11.3 | 0.00 | 0.00 | 0.00 | 72 | 1015.0 |
| 20260502044106 | 8 | 258 | 6.4 | 8.0 | 0.00 | 0.00 | 0.00 | 72 | 1015.0 |
| 20260502043607 | 8 | 250 | 3.2 | 6.4 | 0.00 | 0.00 | 0.00 | 71 | 1015.0 |
| 20260502043107 | 8 | 297 | 9.7 | 12.9 | 0.00 | 0.00 | 0.00 | 71 | 1015.1 |
| 20260502042606 | 8 | 296 | 6.4 | 9.7 | 0.00 | 0.00 | 0.00 | 71 | 1015.2 |
| 20260502042106 | 9 | 280 | 6.4 | 9.7 | 0.00 | 0.00 | 0.00 | 71 | 1015.2 |
| 20260502041607 | 9 | 291 | 6.4 | 9.7 | 0.00 | 0.00 | 0.00 | 71 | 1015.1 |
| 20260502041107 | 9 | 279 | 4.8 | 8.0 | 0.00 | 0.00 | 0.00 | 71 | 1015.1 |
| 20260502040607 | 9 | 287 | 6.4 | 8.0 | 0.00 | 0.00 | 0.00 | 71 | 1015.1 |
| 20260502040107 | 9 | 299 | 6.4 | 9.7 | 0.00 | 0.00 | 0.00 | 71 | 1015.2 |
| 20260502035607 | 9 | 277 | 6.4 | 9.7 | 0.00 | 0.00 | 0.00 | 71 | 1015.4 |
| 20260502035106 | 9 | 291 | 8.0 | 9.7 | 0.00 | 0.00 | 0.00 | 71 | 1015.2 |
| 20260502034606 | 9 | 272 | 8.0 | 12.9 | 0.00 | 0.00 | 0.00 | 71 | 1015.1 |
| 20260502034106 | 9 | 281 | 6.4 | 9.7 | 0.00 | 0.00 | 0.00 | 70 | 1015.1 |
| 20260502033607 | 9 | 297 | 8.0 | 12.9 | 0.00 | 0.00 | 0.00 | 70 | 1015.2 |
| 20260502033107 | 10 | 261 | 6.4 | 9.7 | 0.00 | 0.00 | 0.00 | 70 | 1015.2 |
| 20260502032607 | 10 | 287 | 6.4 | 11.3 | 0.00 | 0.00 | 0.00 | 69 | 1015.2 |
| 20260502032111 | 10 | 290 | 6.4 | 8.0 | 0.00 | 0.00 | 0.00 | 69 | 1015.4 |
| 20260502031607 | 10 | 278 | 3.2 | 6.4 | 0.00 | 0.00 | 0.00 | 68 | 1015.5 |
| 20260502031107 | 10 | 291 | 4.8 | 8.0 | 0.00 | 0.00 | 0.00 | 68 | 1015.5 |
| 20260502030606 | 10 | 290 | 6.4 | 11.3 | 0.00 | 0.00 | 0.00 | 68 | 1015.5 |
| 20260502030106 | 10 | 292 | 8.0 | 12.9 | 0.00 | 0.00 | 0.00 | 68 | 1015.5 |
| 20260502025606 | 10 | 318 | 6.4 | 12.9 | 0.00 | 0.00 | 0.00 | 68 | 1015.5 |
| 20260502025107 | 10 | 267 | 6.4 | 11.3 | 0.00 | 0.00 | 0.00 | 68 | 1015.4 |
| 20260502024607 | 10 | 297 | 9.7 | 12.9 | 0.00 | 0.00 | 0.00 | 68 | 1015.1 |
| 20260502024108 | 10 | 300 | 3.2 | 9.7 | 0.00 | 0.00 | 0.00 | 68 | 1015.1 |
| 20260502023607 | 10 | 300 | 1.6 | 4.8 | 0.00 | 0.00 | 0.00 | 68 | 1015.2 |
| 20260502023107 | 10 | 297 | 6.4 | 9.7 | 0.00 | 0.00 | 0.00 | 68 | 1015.1 |
| 20260502022606 | 10 | 281 | 3.2 | 6.4 | 0.00 | 0.00 | 0.00 | 68 | 1015.0 |
| 20260502022106 | 10 | 281 | 6.4 | 9.7 | 0.00 | 0.00 | 0.00 | 69 | 1015.0 |
| 20260502021606 | 10 | 291 | 8.0 | 12.9 | 0.00 | 0.00 | 0.00 | 69 | 1014.8 |
| 20260502021107 | 10 | 278 | 4.8 | 8.0 | 0.00 | 0.00 | 0.00 | 70 | 1014.7 |
| 20260502020607 | 10 | 268 | 6.4 | 9.7 | 0.00 | 0.00 | 0.00 | 71 | 1014.7 |
| 20260502020106 | 10 | 300 | 8.0 | 11.3 | 0.00 | 0.00 | 0.00 | 71 | 1014.7 |
| 20260502015606 | 10 | 273 | 6.4 | 12.9 | 0.00 | 0.00 | 0.00 | 71 | 1014.6 |
| 20260502015107 | 10 | 357 | 4.8 | 9.7 | 0.00 | 0.00 | 0.00 | 71 | 1014.6 |
| 20260502014606 | 10 | 295 | 3.2 | 4.8 | 0.00 | 0.00 | 0.00 | 71 | 1014.4 |
| 20260502014109 | 10 | 302 | 1.6 | 3.2 | 0.00 | 0.00 | 0.00 | 71 | 1014.2 |
| 20260502013607 | 11 | 331 | 3.2 | 4.8 | 0.00 | 0.00 | 0.00 | 70 | 1014.1 |
| 20260502013106 | 11 | 273 | 6.4 | 12.9 | 0.00 | 0.00 | 0.00 | 70 | 1014.1 |
| 20260502012607 | 11 | 283 | 6.4 | 9.7 | 0.00 | 0.00 | 0.00 | 70 | 1014.2 |
| 20260502012107 | 11 | 287 | 9.7 | 14.5 | 0.00 | 0.00 | 0.00 | 69 | 1014.2 |
| 20260502011608 | 11 | 267 | 8.0 | 9.7 | 0.00 | 0.00 | 0.00 | 68 | 1014.1 |
| 20260502011106 | 11 | 281 | 9.7 | 16.1 | 0.00 | 0.00 | 0.00 | 67 | 1014.1 |
| 20260502010606 | 11 | 311 | 4.8 | 6.4 | 0.00 | 0.00 | 0.00 | 66 | 1013.9 |
| 20260502010107 | 12 | 274 | 4.8 | 6.4 | 0.00 | 0.00 | 0.00 | 64 | 1013.9 |